Regional Weather Roundup
Issued by NWS

Home | Current Version | Previous Version | Graphics & Text | Print | Product List | Glossary On
Versions: 1 2 3 4 5 6 7 8 9 10 11 12 13 14 15 16 17 18 19 20 21 22 23 24 25 26 27 28 29 30 31 32 33 34 35 36 37 38 39 40 41 42 43 44 45 46 47 48 49 50
000
ASUS43 KLMK 210202
RWRKY
KENTUCKY REGIONAL WEATHER ROUNDUP
NATIONAL WEATHER SERVICE LOUISVILLE KY
900 PM EST SAT DEC 20 2014

NOTE "FAIR" INDICATES FEW OR NO CLOUDS BELOW 12,000 FEET
WITH NO SIGNIFICANT WEATHER AND/OR OBSTRUCTIONS TO VISIBILITY.

KYZ001>023-026-027-061>063-070>075-210300-
WESTERN AND SOUTH CENTRAL KENTUCKY

CITY           SKY/WX    TMP DP  RH WIND       PRES   REMARKS
PADUCAH        CLEAR     30  27  88 CALM      30.27S
HENDERSON      CLEAR     27  21  80 CALM      30.29S
OWENSBORO      CLEAR     32  27  82 NE5       30.29F WCI  27
HOPKINSVILLE   CLEAR     31  27  84 N5        30.27S WCI  26
BOWLING GREEN  CLEAR     30  25  81 CALM      30.28S
GLASGOW        NOT AVBL
$$

KYZ024-025-028>034-038-045-046-053-210300-
NORTH CENTRAL KENTUCKY

CITY           SKY/WX    TMP DP  RH WIND       PRES   REMARKS
LOUISVILLE/SDF MOCLDY    31  25  78 N6        30.30S WCI  25
LOUISVILLE/LOU CLEAR     30  24  78 CALM      30.30S
FORT KNOX      CLEAR     29  25  83 NE5       30.27S WCI  24
$$

KYZ035>037-039>044-047>052-055>060-089>105-210300-
NORTHEAST KENTUCKY

CITY           SKY/WX    TMP DP  RH WIND       PRES   REMARKS
LEXINGTON      MOCLDY    28  25  88 NE7       30.28S WCI  21
COVINGTON      CLOUDY    32  25  75 CALM      30.29R HAZE
FRANKFORT      PTCLDY    32  25  75 CALM      30.28S
$$

KYZ054-064>069-076>088-106>120-210300-
SOUTHEAST KENTUCKY

CITY           SKY/WX    TMP DP  RH WIND       PRES   REMARKS
JACKSON        CLEAR     32  24  72 CALM      30.25R
LONDON         CLEAR     32  24  72 CALM      30.26R
SOMERSET       NOT AVBL
MIDDLESBORO    NOT AVBL
MONTICELLO     CLEAR     23  21  92 CALM      30.29S
$$




USA.gov is the U.S. government's official web portal to all federal, state and local government web resources and services.